Location: ????????
(38.4362°N, 22.8767°E)
Time: 15:03:45
(UTC+00:00)

ACS3 Solar Sail - Pass Details

Date: 28 June 2024
Orbit: 993 x 1023 km, 97.4° (Epoch: 19 July)

Event Time Altitude Azimuth Distance (km) Brightness Sun altitude
Exits shadow 21:13:44 15° 232° (SW) 2,410 6.7 -25.7°
Maximum altitude 21:16:54 22° 269° (W) 2,045 6.6 -25.9°
Drops below altitude 10° 21:21:31 10° 317° (NW) 2,763 8.0 -26.2°
Sets 21:24:41 0° 333° (NNW) 3,715 9.1 -26.4°
